RADUGA 19 [-]

Last updated on Jan. 23, 2021, 7:21 a.m. UTC

1 17046U 86082A   21022.63325243 -.00000185  00000-0  00000-0 0  9992
2 17046  13.9817 340.0397 0010326 118.7396 250.7174  0.98461859123509
UTC
Height (km)
Latitude
Longitude
Inclination
Orbital Period
UTC large
Height (km)
Speed (km/s)
/
Latitude / Longitude
Inclination (degrees)
Orbital Period (minutes)
Azimuth
Elevation
Range (km)
Doppler Factor
iOS Compass Heading
iOS Angle

Next 30 passes for location: Hong Kong

Rise time Rise Azimuth (degrees) Set time Set Azimuth (degrees) Duration Max altitude (degrees)

No matching passes for this satellites